www.pogodaiklimat.ru

Погода и климат >> Архив погоды >> Австралия >> Квинсленд >> Клермон


ПОГОДА в Клермоне

  • Прогноз погоды в Клермоне
  • Монитор погоды в Клермоне

АРХИВ ПОГОДЫ в Клермоне

Время (UTC), дата Ветер
(напр.,м/с)
 
Видим.   Явления Облачность Т
(С)
Тd
(С)
f
(%)
Тe
(С)
Тes
(С)
Комфортность P
(гПа)
Po
(гПа)
Тmin
(С)
Tmax
(С)
R
(мм)
R24
(мм)
S
(см)
08 18.05 ЮВ 2 н/о н/о +23.4 +11.5 47 +26 +26 жарко 1021.1 989.5
09 18.05 ЮВ 1 н/о н/о +21.8 +11.2 51 +24 +24 комфорт 1021.8 990.2
11 18.05 штиль 0 н/о н/о +16.7 +10.8 68 +17 +17 1023.2 991.5
12 18.05 штиль 0 н/о н/о +14.7 +10.1 74 +14 +14 1023.3 991.6
14 18.05 штиль 0 н/о н/о +12.7 +10.4 86 +12 +12 1023.4 991.7 +26.8
15 18.05 ЮЗ 1 н/о н/о +12.2 +10.1 87 +13 +13 1023.2 991.5
17 18.05 Ю 1 н/о н/о +12.6 +10.7 88 +13 +13 1022.7 991.1
18 18.05 ЮЗ 1 н/о н/о +11.5 +9.4 87 +12 +12 1022.7 991.1
20 18.05 штиль 0 н/о н/о +11.4 +9.7 89 +11 +11 1023.3 991.6
21 18.05 ЮВ 1 н/о н/о +13.7 +12.4 92 +14 +14 1023.7 992.0
23 18.05 ЮВ 3 н/о н/о +18.6 +12.4 67 +20 +20 1024.4 992.7
00 19.05 ЮВ 4 н/о н/о +21.1 +13.0 60 +23 +23 комфорт 1024.2 992.5
02 19.05 В 5 н/о н/о +23.3 +12.6 51 +26 +26 жарко 1022.3 990.7 +10.8
03 19.05 ЮВ 4 н/о н/о +23.6 +12.0 48 +25 +25 комфорт 1021.3 989.7
05 19.05 В 4 н/о н/о +24.8 +12.1 45 +26 +26 жарко 1020.2 988.6
06 19.05 В 3 н/о н/о +25.2 +11.4 42 +27 +27 жарко 1020.3 988.7
08 19.05 ЮВ 1 н/о н/о +21.9 +11.3 51 +24 +24 комфорт 1021.1 989.5
09 19.05 В 2 н/о н/о +21.1 +12.0 56 +23 +23 комфорт 1021.6 990.0
11 19.05 В 2 н/о н/о +19.9 +12.7 63 +22 +22 комфорт 1023.3 991.6
12 19.05 ЮВ 1 н/о н/о +18.4 +12.6 69 +20 +20 1023.6 991.9
14 19.05 СВ 2 н/о н/о +19.1 +13.5 70 +21 +21 комфорт 1022.9 991.3 +26.6
15 19.05 СВ 2 н/о н/о +18.1 +12.8 71 +19 +19 1022.8 991.2
17 19.05 штиль 0 н/о н/о +16.4 +12.0 75 +16 +16 1022.4 990.8
18 19.05 Ю 1 н/о н/о +15.4 +11.8 79 +17 +17 1022.2 990.6
20 19.05 Ю 2 н/о н/о +14.9 +12.4 85 +15 +15 1022.2 990.6
21 19.05 Ю 2 н/о н/о +15.1 +11.9 81 +15 +15 1023.2 991.5
23 19.05 ЮВ 4 н/о н/о +18.8 +12.1 65 +19 +19 1024.2 992.5
00 20.05 ЮВ 4 н/о н/о +21.3 +13.0 59 +24 +24 комфорт 1024.1 992.4
02 20.05 ЮВ 4 н/о н/о +23.6 +13.2 52 +26 +26 жарко 1022.6 991.0 +14.6
03 20.05 В 4 н/о н/о +24.2 +11.9 46 +26 +26 жарко 1021.6 990.0
05 20.05 ЮВ 3 н/о н/о +25.1 +12.3 45 +27 +27 жарко 1020.2 988.6
06 20.05 ЮВ 4 н/о н/о +25.0 +11.9 44 +27 +27 жарко 1020.3 988.7
08 20.05 ЮВ 1 н/о н/о +21.9 +11.9 53 +24 +24 комфорт 1020.9 989.3
09 20.05 штиль 0 н/о н/о +18.7 +11.8 64 +19 +19 1021.4 989.8
11 20.05 штиль 0 н/о н/о +15.2 +11.4 78 +15 +15 1022.2 990.6
12 20.05 штиль 0 н/о н/о +14.8 +11.6 81 +15 +15 1022.5 990.9
14 20.05 штиль 0 н/о н/о +12.8 +10.2 84 +12 +12 1022.3 990.7 +26.0
15 20.05 штиль 0 н/о н/о +11.9 +9.8 87 +11 +11 1021.9 990.3
17 20.05 ЮЗ 1 н/о н/о +11.0 +9.3 89 +11 +11 1021.6 990.0
18 20.05 Ю 2 н/о н/о +11.1 +9.4 89 +10 +10 1021.8 990.2
20 20.05 Ю 1 н/о н/о +12.3 +10.0 86 +12 +12 1022.3 990.7
21 20.05 Ю 1 н/о н/о +13.3 +10.8 85 +13 +13 1022.8 991.2
23 20.05 ЮВ 4 н/о н/о +18.9 +14.2 74 +20 +20 1023.8 992.1
00 21.05 ЮВ 4 н/о н/о +21.5 +14.4 64 +24 +24 комфорт 1023.8 992.1
02 21.05 ЮВ 4 н/о н/о +24.8 +13.0 48 +27 +27 жарко 1022.2 990.6 +11.0
03 21.05 ЮВ 4 н/о н/о +25.1 +9.0 36 +26 +26 жарко 1021.2 989.6
05 21.05 ЮВ 4 н/о н/о +25.9 +10.1 37 +27 +27 жарко 1020.0 988.4
06 21.05 ЮВ 3 н/о н/о +25.7 +8.7 34 +26 +26 жарко 1020.2 988.6
08 21.05 ЮВ 1 н/о н/о +22.3 +9.8 45 +24 +24 комфорт 1021.2 989.6
09 21.05 штиль 0 н/о н/о +20.3 +9.8 51 +21 +21 комфорт 1021.6 990.0
11 21.05 штиль 0 н/о н/о +15.4 +9.7 69 +15 +15 1022.7 991.1
12 21.05 штиль 0 н/о н/о +14.9 +9.5 70 +15 +15 1023.2 991.5
14 21.05 штиль 0 н/о н/о +12.8 +9.8 82 +12 +12 1023.1 991.4 +26.5
15 21.05 ЮЗ 2 н/о н/о +11.9 +9.3 84 +11 +11 1023.4 991.7
17 21.05 штиль 0 н/о н/о +11.4 +9.3 87 +11 +11 1022.9 991.3
18 21.05 ЮЗ 1 н/о н/о +11.8 +9.9 88 +12 +12 1022.8 991.2
20 21.05 Ю 1 н/о н/о +11.0 +9.3 89 +12 +12 1023.5 991.8
21 21.05 ЮЗ 1 н/о н/о +10.8 +9.4 91 +10 +10 1024.1 992.4
23 21.05 ЮВ 3 н/о н/о +18.8 +13.0 69 +20 +20 1025.2 993.5
00 22.05 ЮВ 4 н/о н/о +20.9 +13.6 63 +24 +24 комфорт 1025.1 993.4
02 22.05 ЮВ 4 н/о н/о +23.8 +14.5 56 +26 +26 жарко 1023.7 992.0 +10.5
03 22.05 ЮВ 4 н/о н/о +24.0 +12.6 49 +26 +26 жарко 1022.2 990.6
05 22.05 ЮВ 3 н/о н/о +24.6 +12.2 46 +26 +26 жарко 1021.2 989.6
06 22.05 ЮВ 4 н/о н/о +24.3 +11.6 45 +26 +26 жарко 1021.3 989.7
08 22.05 ЮВ 2 н/о н/о +22.5 +11.9 51 +25 +25 комфорт 1021.6 990.0
09 22.05 Ю 2 н/о н/о +21.4 +11.7 54 +23 +23 комфорт 1022.2 990.6
11 22.05 штиль 0 н/о н/о +19.4 +12.4 64 +21 +21 комфорт 1022.7 991.1
12 22.05 В 1 н/о н/о +19.9 +11.9 60 +23 +23 комфорт 1023.2 991.5
14 22.05 штиль 0 н/о н/о +19.1 +14.6 75 +20 +20 1023.1 991.4 +25.6
15 22.05 штиль 0 н/о н/о +15.7 +12.5 81 +16 +16 1022.9 991.3
17 22.05 Ю 1 н/о н/о +13.5 +11.7 89 +14 +14 1022.3 990.7
18 22.05 штиль 0 н/о н/о +14.5 +12.0 85 +14 +14 1022.1 990.5
20 22.05 Ю 2 н/о н/о +13.4 +11.3 87 +13 +13 1022.8 991.2
21 22.05 Ю 2 н/о н/о +14.4 +12.4 88 +14 +14 1023.4 991.7
23 22.05 ЮВ 4 н/о н/о +19.1 +13.5 70 +20 +20 1024.4 992.7
00 23.05 ЮВ 5 н/о н/о +20.9 +13.6 63 +24 +24 комфорт 1024.3 992.6
02 23.05 ЮВ 3 н/о н/о +23.8 +11.8 47 +25 +25 комфорт 1022.6 991.0 +13.1
03 23.05 ЮВ 4 н/о н/о +24.3 +10.9 43 +26 +26 жарко 1021.6 990.0
05 23.05 ЮВ 3 н/о н/о +25.6 +11.0 40 +27 +27 жарко 1020.2 988.6
06 23.05 ЮВ 3 н/о н/о +24.7 +10.9 42 +26 +26 жарко 1020.1 988.5
08 23.05 ЮВ 1 н/о н/о +22.0 +11.4 51 +24 +24 комфорт 1020.8 989.2
09 23.05 ЮВ 1 н/о н/о +20.4 +11.3 56 +24 +24 комфорт 1021.4 989.8
11 23.05 штиль 0 н/о н/о +15.9 +11.1 73 +16 +16 1022.1 990.5
12 23.05 штиль 0 н/о н/о +16.0 +11.4 74 +16 +16 1022.2 990.6
14 23.05 штиль 0 н/о н/о +13.5 +10.5 82 +13 +13 1021.2 989.6 +25.9
15 23.05 ЮЗ 1 н/о н/о +12.6 +10.1 85 +13 +13 1020.9 989.3
17 23.05 ЮЗ 1 н/о н/о +11.5 +9.2 86 +12 +12 1020.8 989.2
18 23.05 ЮЗ 1 н/о н/о +11.2 +9.6 90 +11 +11 1020.7 989.1
20 23.05 штиль 0 н/о н/о +11.3 +9.9 91 +11 +11 1021.4 989.8
21 23.05 Ю 2 н/о н/о +11.6 +9.9 89 +11 +11 1021.8 990.2
23 23.05 ЮВ 4 н/о н/о +19.1 +13.3 69 +20 +20 1022.4 990.8
00 24.05 ЮВ 4 н/о н/о +20.9 +13.8 64 +24 +24 комфорт 1022.4 990.8
02 24.05 ЮВ 3 н/о н/о +22.7 +12.0 51 +25 +25 комфорт 1020.9 989.3 +10.6
03 24.05 В 3 н/о н/о +24.7 +11.3 43 +26 +26 жарко 1019.4 987.9
05 24.05 В 3 н/о н/о +24.7 +9.8 39 +26 +26 жарко 1017.9 986.4
06 24.05 В 3 н/о н/о +25.3 +9.6 37 +26 +26 жарко 1018.1 986.6
08 24.05 ЮВ 1 н/о н/о +22.2 +10.7 48 +24 +24 комфорт 1018.8 987.3
09 24.05 штиль 0 н/о н/о +21.8 +11.5 52 +24 +24 комфорт 1020.0 988.4
11 24.05 ЮВ 1 н/о н/о +19.4 +11.4 60 +22 +22 комфорт 1019.9 988.3
12 24.05 штиль 0 н/о н/о +15.8 +10.1 69 +16 +16 1019.9 988.3
14 24.05 штиль 0 н/о н/о +13.5 +10.5 82 +13 +13 1020.1 988.5 +26.0
15 24.05 штиль 0 н/о н/о +13.1 +10.3 83 +13 +13 1019.7 988.2
17 24.05 штиль 0 н/о н/о +11.9 +10.0 88 +11 +11 1019.1 987.6
18 24.05 ЮЗ 1 н/о н/о +11.2 +9.3 88 +11 +11 1019.1 987.6
20 24.05 штиль 0 н/о н/о +10.3 +8.7 90 +10 +10 1020.0 988.4
21 24.05 штиль 0 н/о н/о +10.2 +8.8 91 +9 +9 1020.5 988.9
23 24.05 ЮВ 1 н/о н/о +17.0 +14.3 84 +18 +18 1021.3 989.7
00 25.05 ЮВ 2 н/о н/о +18.9 +14.4 75 +21 +21 комфорт 1021.2 989.6
02 25.05 В 3 н/о н/о +23.4 +13.8 55 +27 +27 душно 1019.1 987.6 +9.9
03 25.05 В 3 н/о н/о +24.2 +12.2 47 +26 +26 жарко 1018.1 986.6
05 25.05 ЮВ 3 н/о н/о +24.9 +9.6 38 +26 +26 жарко 1016.6 985.1
06 25.05 ЮВ 3 н/о н/о +25.1 +9.4 37 +26 +26 жарко 1016.4 985.0

 

Местоположение метеостанции Клермон (Квинсленд, Австралия): широта -22.77 долгота 147.62 высота над уровнем моря 271 м.

В архиве по умолчанию представлена погода в Клермоне за последнюю неделю. Архивные данные за месяц целиком и за предыдущие месяцы, начиная с января 2011 года, Вы можете получить, выбрав интересующий диапазон дат из раскрывающегося списка и нажав кнопку "Ввод!".


*Определитесь, кто Вы:
робот инопланетянин человек

Внимание! Время в таблицах - всемирное. Для получения местного времени необходимо прибавить поправку, которая равна 10 ч.

Смотрите также архив погоды в соседних городах и на ближайших метеорологических станциях:

Погода в Эмералде (Квинсленд, Австралия) (105 км)
Погода в Лочингтоне (Квинсленд, Австралия) (129 км)
Погода в Сент-Лоренсе (Квинсленд, Австралия) (201 км)
Погода в Роллстоне (Квинсленд, Австралия) (215 км)
Погода в Маккае (Квинсленд, Австралия) (240 км)
Погода в Маккае (Квинсленд, Австралия) (247 км)
Погода в Уильямсоне (Квинсленд, Австралия) (265 км)
Погода в Прозерпине (Квинсленд, Австралия) (269 км)
Погода в Блэколле (Квинсленд, Австралия) (289 км)
Погода на Острове Мидл (Квинсленд, Австралия) (299 км)

Пояснения к столбцам:

Ветер - указаны скорость ветра в м/с - средняя за 10 мин, порывы в срок и между сроками (в фигурных скобках) и направление, откуда дует ветер: С - северный, СВ - северо-восточный, В - восточный, ЮВ - юго-восточный, Ю - южный, ЮЗ - юго-западный, З - западный, СЗ - северо-западный.
Видимость - горизонтальная дальность видимости в метрах или километрах. При видимости от 1 до 10 км при отсутствии осадков обычно наблюдается дымка, при ухудшении видимости до 1 км и менее - туман. В сухую погоду видимость может ухудшаться дымом, пылью или мглою.
Явления - указаны атмосферные явления, наблюдавшиеся в срок или в последний час перед сроком; фигурными скобками обозначены явления, наблюдавшиеся между сроками (за 1-3 часа до срока); квадратными скобками обозначены град или гололедные отложения с указанием их диаметра в мм.
Облачность - указаны через наклонную черту общая и нижняя облачность в баллах и высота нижней границы облаков в метрах; квадратными скобками обозначены формы облаков: Ci - перистые, Cs - перисто-слоистые, Cc - перисто-кучевые, Ac - высококучевые, As - высокослоистые, Sc - слоисто-кучевые, Ns - слоисто-дождевые, Cu - кучевые, Cb - кучево-дождевые. Подробнее классификацию облаков см. в Атласе облаков (PDF).
T - Температура воздуха - температура, измеренная на высоте 2 м над землей.
Td - Температура точки росы - температура, при понижении до которой содержащийся в воздухе водяной пар достигнет насыщения.
f - Относительная влажность воздуха - влажноcть воздуха, измеренная на высоте 2 м над землей.
Te - Эффективная температура - температура, которую ощущает одетый по сезону человек в тени. Характеристика душности погоды. При расчете учитывается влияние влажности воздуха и скорости ветра на теплоощущения человека.
Tes - Эффективная температура на солнце - температура, которую ощущает человек, с поправкой на солнечный нагрев. Характеристика знойности погоды. Зависит от высоты солнца над горизонтом, облачности и скорости ветра. Ночью, в пасмурную погоду, а также при ветре 12 м/с и более поправка равна нулю.
P - Атмосферное давление - приведенное к уровню моря атмосферное давление.
Po - Атмосферное давление - измеренное на уровне метеостанции атмосферное давление.
Tmin - Минимальная температура - минимум температуры воздуха на высоте 2 м над землей.
Tmax - Максимальная температура - максимум температуры воздуха на высоте 2 м над землей.
R - Количество осадков - Количество выпавших осадков за период времени, мм. При наведении курсора мыши на число - период времени, за который выпало указанное количество осадков.
R24 - Количество осадков - Количество выпавших осадков за 24 часа, мм.
S - Снежный покров - Высота снежного покрова, см. При наведении курсора мыши на число - состояние снежного покрова и степень покрытия местности в баллах.